Content
SEND FEEDBACK

Daily
Averages
Monthly
Summary
Netherlands

AMSTERDAM, NETHERLANDS


Home > Europe > Netherlands
Elevation: 7 feet     Latitude: 52 18N     Longitude: 004 46E

WEATHER
 
SELECT A DAY
Number of Records: 312,774;   Date Range: 7/1/96 - 12/16/14
 
SHARE

PRINT THIS DATA

[ ← Previous Day ]
WEATHER ALMANAC - MARCH 29, 2013
[ Next Day → ]
[ °C ]   °F
Weather ElementAverageHighLow
Temperature32.1 °F37.4 °F (1:55 pm)26.6 °F (5:25 am)
Dewpoint26.3 °F28.4 °F (9:25 am)23 °F (5:25 am)
Humidity78.6 %93 % (2:55 am)48 % (4:00 pm)
Barometer29.81 in29.86 in (1:00 am)29.77 in (4:55 pm)
Wind Speed6.5 mph9.2 mph (1:25 pm)
Weather ElementAverage
Visibility5.1 mi
Wind DirectionENE (77.8 °)

Weather ElementTotal
Precipitation---
Heating Degree Days33 (Base 65)
Averaged from 55 records on March 29, 2013
WEATHER CONDITIONS BREAKOUT
WIND DIRECTION BREAKOUT
WEATHER BY HOUR - MARCH 29, 2013
[ °C ]   °F
Local TimeTemperatureDewpointHumidityBarometerVisibilityWind DirectionWind SpeedGust SpeedPrecipitationEventsConditions
12:55 AM28.4 °F24.8 °F86 %29.83 inNorth (360°)6.9 mphPartly Cloudy
1:00 AM29.0 °F26.0 °F81 %29.86 in3.0 miNorth6.7 mphMist
1:25 AM28.4 °F24.8 °F86 %29.83 inNorth (10°)5.8 mphPartly Cloudy
1:55 AM28.4 °F24.8 °F86 %29.83 in2.8 miNorth (360°)6.9 mphPartly Cloudy
2:25 AM28.4 °F24.8 °F86 %29.83 inNorth (10°)6.9 mphPartly Cloudy
2:55 AM28.4 °F26.6 °F93 %29.83 inNorth (10°)3.5 mphMostly Cloudy
3:25 AM28.4 °F26.6 °F93 %29.83 inNNE (20°)5.8 mphMostly Cloudy
3:55 AM28.4 °F26.6 °F93 %29.83 inNorth (10°)5.8 mphMostly Cloudy
4:00 AM29.0 °F26.0 °F83 %29.83 in3.0 miNorth (10°)4.5 mphMist
4:25 AM30.2 °F26.6 °F86 %29.83 in3.1 miNNE (20°)5.8 mphMostly Cloudy
4:55 AM28.4 °F24.8 °F86 %29.83 in3.1 miNorth (10°)4.6 mphMostly Cloudy
5:25 AM26.6 °F23.0 °F86 %29.83 in3.1 miNorth (360°)4.6 mphScattered Clouds
5:55 AM28.4 °F24.8 °F86 %29.83 in3.1 miNorth (360°)5.8 mphMostly Cloudy
6:25 AM30.2 °F24.8 °F80 %29.83 in3.1 miNNE (30°)5.8 mphMostly Cloudy
6:55 AM28.4 °F26.6 °F93 %29.83 inNNE (30°)6.9 mphOvercast
7:00 AM29.0 °F25.0 °F80 %29.85 in3.0 miNNE (30°)6.7 mphMist
7:25 AM28.4 °F24.8 °F86 %29.83 in3.1 miNNE (30°)5.8 mphScattered Clouds
7:55 AM30.2 °F26.6 °F86 %29.83 in3.1 miNNE (20°)4.6 mphScattered Clouds
8:25 AM32.0 °F26.6 °F80 %29.83 in3.7 miNNE (30°)3.5 mphSnowLight Snow Grains
8:55 AM32.0 °F26.6 °F80 %29.83 in4.3 miNorth (10°)5.8 mphScattered Clouds
9:25 AM32.0 °F28.4 °F87 %29.83 in4.3 miNNW (330°)6.9 mphMostly Cloudy
9:55 AM33.8 °F28.4 °F81 %29.83 in5.0 miNNW (330°)6.9 mphScattered Clouds
10:00 AM33.0 °F27.0 °F70 %29.84 in5.0 miNNW (340°)6.7 mphMist
10:25 AM33.8 °F26.6 °F75 %29.83 in6.2 miNNW (330°)5.8 mphScattered Clouds
10:55 AM35.6 °F24.8 °F65 %29.83 in6.2 miNNE (30°)5.8 mphScattered Clouds
11:25 AM35.6 °F24.8 °F65 %29.80 in6.2 miNNE (30°)4.6 mphScattered Clouds
11:55 AM35.6 °F24.8 °F65 %29.80 in6.2 miENE (60°)5.8 mphMostly Cloudy
12:25 PM35.6 °F26.6 °F70 %29.80 in6.2 miENE (60°)8.1 mphMostly Cloudy
12:55 PM35.6 °F26.6 °F70 %29.80 in6.2 miENE (60°)6.9 mphMostly Cloudy
1:00 PM36.0 °F27.0 °F58 %29.82 in7.0 miENE (70°)6.7 mphPartly Cloudy
1:25 PM35.6 °F28.4 °F75 %29.80 in6.2 miENE (60°)9.2 mphMostly Cloudy
1:55 PM37.4 °F28.4 °F70 %29.80 in6.2 miENE (60°)8.1 mphScattered Clouds
2:25 PM37.4 °F26.6 °F65 %29.80 in6.2 miENE (60°)5.8 mphScattered Clouds
2:55 PM37.4 °F26.6 °F65 %29.80 in6.2 miENE (70°)6.9 mphScattered Clouds
3:25 PM37.4 °F24.8 °F60 %29.80 in6.2 miNNE (30°)8.1 mphScattered Clouds
3:55 PM37.4 °F24.8 °F60 %29.80 in6.2 miNNE (20°)8.1 mphScattered Clouds
4:00 PM37.0 °F24.0 °F48 %29.80 in7.0 miNNE (30°)6.7 mphOvercast
4:25 PM35.6 °F24.8 °F65 %29.80 in6.2 miENE (70°)6.9 mphSnowLight Snow
4:55 PM35.6 °F26.6 °F70 %29.77 in6.2 miNE (50°)8.1 mphSnowLight Snow
5:25 PM35.6 °F26.6 °F70 %29.77 in6.2 miNE (50°)8.1 mphScattered Clouds
5:55 PM35.6 °F26.6 °F70 %29.77 in6.2 miNNE (30°)8.1 mphScattered Clouds
6:25 PM35.6 °F26.6 °F70 %29.77 in6.2 miNE (40°)6.9 mphScattered Clouds
6:55 PM33.8 °F28.4 °F81 %29.80 in6.2 miNNE (30°)9.2 mphScattered Clouds
7:00 PM33.0 °F27.0 °F72 %29.81 in6.0 miNNE (30°)8.9 mphLight Haze
7:25 PM32.0 °F26.6 °F80 %29.80 in5.0 miNNE (20°)8.1 mphScattered Clouds
7:55 PM30.2 °F26.6 °F86 %29.80 in6.2 miNNE (20°)5.8 mphScattered Clouds
8:25 PM32.0 °F28.4 °F87 %29.80 in6.2 miNNE (30°)9.2 mphPartly Cloudy
8:55 PM32.0 °F28.4 °F87 %29.80 in6.2 miNNE (30°)6.9 mphFogShallow Fog
9:25 PM32.0 °F28.4 °F87 %29.80 in6.2 miNNE (20°)6.9 mphFogShallow Fog
9:55 PM30.2 °F26.6 °F86 %29.80 in6.2 miNNE (30°)5.8 mphFogShallow Fog
10:00 PM29.0 °F27.0 °F87 %29.81 in4.0 miNNE (20°)4.5 mphMist
10:25 PM30.2 °F26.6 °F86 %29.80 in6.2 miNNE (30°)4.6 mphFogShallow Fog
10:55 PM28.4 °F26.6 °F93 %29.80 in6.2 miNorth (10°)5.8 mphFogShallow Fog
11:25 PM28.4 °F26.6 °F93 %29.80 in3.7 miNNE (30°)3.5 mphFogFog
11:55 PM32.0 °F28.4 °F87 %29.80 in3.1 miNE (50°)8.1 mphFogShallow Fog
Hourly data recorded from EHAM, located miles away from Amsterdam, Netherlands







STORIES FROM OUR PARTNERS